User: anonymous   Login
Location: Bernadets
(43.3537°N, 0.3167°E)
Time: 05:14:17
(UTC+00:00)
Language:

Meteor 1-4 Rocket - Orbit

View from above orbital plane
View from above orbital plane
View from above satellite
View from above satellite

Ground track
Ground track

The orbit data is extracted from the following two-line orbital elements,

1 04394U 70037B   22017.57376695  .00004610  00000-0  14638-3 0  9993
2 04394  81.2392 202.9814 0037350 148.4281 211.9209 15.31714030821357
Epoch (UTC): 17 January 2022 13:46:13
Eccentricity: 0.0037350
inclination: 81.2392°
perigee height: 445 km
apogee height: 496 km
right ascension of ascending node: 202.9814°
argument of perigee: 148.4281°
revolutions per day: 15.31714030
mean anomaly at epoch: 211.9209°
orbit number at epoch: 82135

The dashed part of the orbit path shows where the satellite is in the earth's shadow,  

DLR